This is the latest recevied weather packets stored in our database for station/object KK4PWJ-13. If no packets are shown the sender has not sent any weather packets the latest 10 day(s).
| Time | Temp. | Humidity | Pressure | Rain* | Wind** | Luminosity | Snow |
|---|---|---|---|---|---|---|---|
| 1777637171 | 9.44° C | 86% | 1014.2 hPa | 0 mm | - | 58 W/m² | - |
| 1777636868 | 8.89° C | 88% | 1014.2 hPa | 0 mm | - | 54 W/m² | - |
| 1777636563 | 8.89° C | 88% | 1014 hPa | 0 mm | - | 34 W/m² | - |
| 1777636260 | 8.33° C | 89% | 1014 hPa | 0 mm | - | 40 W/m² | - |
| 1777635655 | 8.33° C | 90% | 1014.1 hPa | 0 mm | - | 28 W/m² | - |
| 1777635353 | 7.78° C | 90% | 1013.8 hPa | 0 mm | - | 26 W/m² | - |
| 1777635049 | 7.78° C | 91% | 1014 hPa | 0 mm | - | 27 W/m² | - |
| 1777634745 | 7.78° C | 90% | 1013.8 hPa | 0 mm | - | 19 W/m² | - |
| 1777634443 | 7.78° C | 90% | 1013.7 hPa | 0 mm | - | 16 W/m² | - |
| 1777634140 | 7.78° C | 90% | 1013.8 hPa | 0 mm | - | 18 W/m² | - |
| 1777633836 | 7.22° C | 90% | 1013.8 hPa | 0 mm | - | 14 W/m² | - |
| 1777633534 | 7.22° C | 90% | 1013.5 hPa | 0 mm | - | 13 W/m² | - |
| 1777633231 | 7.22° C | 90% | 1013.5 hPa | 0 mm | - | 13 W/m² | - |
| 1777632929 | 7.22° C | 90% | 1013.6 hPa | 0 mm | - | 11 W/m² | - |
| 1777632625 | 7.22° C | 89% | 1013.6 hPa | 0 mm | - | 8 W/m² | - |
| 1777632322 | 7.22° C | 89% | 1013.5 hPa | 0 mm | - | 6 W/m² | - |
| 1777632019 | 7.22° C | 88% | 1013.5 hPa | 0 mm | - | 4 W/m² | - |
| 1777631717 | 7.22° C | 88% | 1013.4 hPa | 0 mm | - | 3 W/m² | - |
| 1777631414 | 7.22° C | 88% | 1013.3 hPa | 0 mm | - | 2 W/m² | - |
| 1777631110 | 7.78° C | 87% | 1013.5 hPa | 0 mm | - | 1 W/m² | - |
| 1777630808 | 7.78° C | 87% | 1013.3 hPa | 0 mm | - | 1 W/m² | - |
| 1777630504 | 7.78° C | 86% | 1013.3 hPa | 0 mm | - | 0 W/m² | - |
| 1777630201 | 7.78° C | 87% | 1013.2 hPa | 0 mm | - | 0 W/m² | - |
| 1777629899 | 7.78° C | 86% | 1013 hPa | 0 mm | - | 0 W/m² | - |
| 1777629596 | 7.78° C | 86% | 1013.1 hPa | 0 mm | - | 0 W/m² | - |
* Rain latest hour (hover to see other rain measurements)
** Current wind speed in m/s (hover to see current wind gust speed)